Flag for Mauritania Weather past 2 weeks in Rosso, Mauritania

Now
73 °F

Passing clouds.


Feels Like: 74 °F
Forecast: 68 / 105 °F
Wind: 9 mph from Northeast

Location: Saint Airport-Louis

Current Time: May 28, 2015 at 8:52:37 AM

Latest Report: May 28, 2015 at 8:00 AM


Visibility: N/A

Pressure: 29.89 "Hg

Humidity: 78%

Dew point: 66 °F

Location of RossoLocation

Historic Weather in Rosso — Graph

°F

Rosso temperature yesterday

Maximum temperature yesterday: 90 °F (at 1:00 PM)
Minimum temperature yesterday: 72 °F (at 4:00 AM)
Average temperature yesterday: 78 °F

Past Weeks' High & Low Weather Summary

 TemperatureHumidityPressure
High93 °F (May 26, 12:00 PM)100% (May 18, 1:00 AM)30.01 "Hg (May 18, 1:00 AM)
Low70 °F (May 21, 2:00 PM)34% (May 26, 12:00 PM)29.77 "Hg (May 15, 4:00 PM)
Average78 °F78%29.88 "Hg
* Reported May 13 7:00 AM — May 28 7:00 AM, Rosso, Weather by CustomWeather, © 2015

Note: Actual official high and low records may vary slightly from our data, if they occured in-between our weather recording intervals... More about our weather records

Advertising

Rosso weather history for previous 24 hours

 ConditionsComfort  
Time TempWeatherWind HumidityBarometerVisibility
7:00 AM
Thu, May 28
70 °FPassing clouds.9 mph88%29.86 "HgN/A
6:00 AM70 °FPassing clouds.9 mph94%29.86 "HgN/A
3:00 AM72 °FClear.9 mph94%29.86 "Hg10 mi
12:00 AM72 °FPassing clouds.7 mph94%29.92 "HgN/A
11:00 PM
Wed, May 27
73 °FPassing clouds.7 mph89%29.92 "HgN/A
10:00 PM73 °FClear.7 mph89%29.92 "Hg10 mi
9:00 PM73 °FPassing clouds.9 mph89%29.89 "HgN/A
8:00 PM75 °FPassing clouds.12 mph83%29.89 "HgN/A
7:00 PM77 °FPassing clouds.12 mph79%29.89 "HgN/A
6:00 PM81 °FPassing clouds.14 mph70%29.86 "HgN/A
5:00 PM81 °FPassing clouds.12 mph70%29.86 "HgN/A
4:00 PM84 °FPassing clouds.14 mph58%29.86 "HgN/A
3:00 PM86 °FPassing clouds.14 mph55%29.86 "HgN/A
2:00 PM90 °FPassing clouds.9 mph46%29.89 "HgN/A
1:00 PM90 °FPassing clouds.12 mph46%29.89 "HgN/A
12:00 PM88 °FPassing clouds.12 mph46%29.89 "HgN/A
11:00 AM86 °FPassing clouds.14 mph52%29.92 "HgN/A
10:00 AM81 °FPassing clouds.14 mph62%29.92 "HgN/A
9:00 AM79 °FSunny.14 mph65%29.92 "Hg10 mi
8:00 AM73 °FPassing clouds.12 mph74%29.89 "HgN/A
Weather by CustomWeather, © 2015

See weather overviewHow to use our weather pages